TimeCST,TemperatureF,Dew PointF,Humidity,Sea Level PressureIn,VisibilityMPH,Wind Direction,Wind SpeedMPH,Gust SpeedMPH,PrecipitationIn,Events,Conditions,WindDirDegrees,DateUTC
12:15 AM,19.4,19.4,100,30.40,10.0,NNW,10.4,-,N/A,Snow,Light Snow,330,2013-03-06 06:15:00
12:34 AM,19.4,19.4,100,30.40,10.0,NNW,11.5,-,N/A,,Overcast,340,2013-03-06 06:34:00
12:55 AM,19.4,19.4,100,30.40,10.0,NNW,9.2,-,N/A,Snow,Light Snow,340,2013-03-06 06:55:00
1:15 AM,19.4,19.4,100,30.40,7.0,NNW,10.4,-,N/A,Snow,Light Snow,340,2013-03-06 07:15:00
1:34 AM,19.4,17.6,93,30.40,10.0,NNW,10.4,-,N/A,Snow,Light Snow,340,2013-03-06 07:34:00
1:55 AM,19.4,17.6,93,30.41,7.0,NNW,9.2,-,N/A,Snow,Light Snow,340,2013-03-06 07:55:00
2:15 AM,19.4,17.6,93,30.41,7.0,NNW,9.2,-,N/A,Snow,Light Snow,330,2013-03-06 08:15:00
2:34 AM,19.4,17.6,93,30.41,7.0,NNW,9.2,-,N/A,Snow,Light Snow,330,2013-03-06 08:34:00
2:55 AM,19.4,17.6,93,30.40,7.0,NNW,8.1,-,N/A,Snow,Light Snow,330,2013-03-06 08:55:00
3:15 AM,19.4,17.6,93,30.40,7.0,NNW,8.1,-,N/A,Snow,Light Snow,330,2013-03-06 09:15:00
3:34 AM,19.4,17.6,93,30.40,7.0,NNW,6.9,-,N/A,Snow,Light Snow,330,2013-03-06 09:34:00
3:55 AM,17.6,17.6,100,30.40,7.0,NNW,6.9,-,N/A,Snow,Light Snow,330,2013-03-06 09:55:00
4:14 AM,17.6,17.6,100,30.40,7.0,NNW,6.9,-,N/A,Snow,Light Snow,340,2013-03-06 10:14:00
4:35 AM,17.6,17.6,100,30.41,7.0,NNW,5.8,-,N/A,Snow,Light Snow,340,2013-03-06 10:35:00
4:55 AM,17.6,17.6,100,30.41,7.0,NNW,5.8,-,N/A,Snow,Light Snow,340,2013-03-06 10:55:00
5:14 AM,17.6,17.6,100,30.42,7.0,NNW,5.8,-,N/A,,Overcast,340,2013-03-06 11:14:00
5:35 AM,17.6,17.6,100,30.43,7.0,NNW,5.8,-,N/A,Snow,Light Snow,340,2013-03-06 11:35:00
5:55 AM,17.6,17.6,100,30.43,7.0,NNW,5.8,-,N/A,Snow,Light Snow,340,2013-03-06 11:55:00
6:14 AM,17.6,17.6,100,30.43,7.0,NNW,5.8,-,N/A,Snow,Light Snow,340,2013-03-06 12:14:00
6:35 AM,17.6,17.6,100,30.44,5.0,NNW,5.8,-,N/A,Snow,Light Snow,330,2013-03-06 12:35:00
6:55 AM,17.6,17.6,100,30.44,5.0,NNW,4.6,-,N/A,Snow,Light Snow,330,2013-03-06 12:55:00
7:14 AM,17.6,17.6,100,30.44,3.0,NNW,5.8,-,N/A,Snow,Light Snow,330,2013-03-06 13:14:00
7:35 AM,17.6,17.6,100,30.44,2.5,North,4.6,-,N/A,Snow,Light Snow,350,2013-03-06 13:35:00
7:55 AM,17.6,17.6,100,30.44,2.5,North,4.6,-,N/A,Snow,Light Snow,350,2013-03-06 13:55:00
8:14 AM,17.6,17.6,100,30.44,3.0,North,3.5,-,N/A,Snow,Light Snow,350,2013-03-06 14:14:00
8:35 AM,17.6,17.6,100,30.44,2.0,North,3.5,-,N/A,Snow,Light Snow,360,2013-03-06 14:35:00
8:55 AM,17.6,17.6,100,30.44,2.5,North,3.5,-,N/A,Snow,Light Snow,10,2013-03-06 14:55:00
9:14 AM,17.6,17.6,100,30.44,3.0,North,3.5,-,N/A,Snow,Light Snow,360,2013-03-06 15:14:00
9:35 AM,17.6,17.6,100,30.44,3.0,North,3.5,-,N/A,Snow,Light Snow,360,2013-03-06 15:35:00
9:55 AM,19.4,17.6,93,30.44,1.8,NNE,3.5,-,N/A,Snow,Light Snow,20,2013-03-06 15:55:00
10:14 AM,19.4,17.6,93,30.43,3.0,NNE,3.5,-,N/A,,Overcast,20,2013-03-06 16:14:00
10:35 AM,19.4,17.6,93,30.43,5.0,NE,4.6,-,N/A,,Overcast,40,2013-03-06 16:35:00
10:55 AM,19.4,19.4,100,30.42,5.0,NNE,4.6,-,N/A,Snow,Light Snow,30,2013-03-06 16:55:00
11:14 AM,19.4,17.6,93,30.42,5.0,NNE,3.5,-,N/A,Snow,Light Snow,20,2013-03-06 17:14:00
11:35 AM,19.4,17.6,93,30.42,5.0,Calm,Calm,-,N/A,Snow,Light Snow,0,2013-03-06 17:35:00
11:54 AM,21.2,19.4,93,30.42,10.0,Calm,Calm,-,N/A,,Overcast,0,2013-03-06 17:54:00
12:15 PM,21.2,17.6,86,30.41,7.0,Calm,Calm,-,N/A,,Overcast,0,2013-03-06 18:15:00
12:35 PM,21.2,15.8,80,30.41,7.0,ENE,3.5,-,N/A,,Overcast,60,2013-03-06 18:35:00
12:54 PM,21.2,15.8,80,30.40,7.0,East,4.6,-,N/A,,Overcast,80,2013-03-06 18:54:00
1:15 PM,21.2,15.8,80,30.39,7.0,Calm,Calm,-,N/A,Snow,Light Snow,0,2013-03-06 19:15:00
1:35 PM,23.0,15.8,74,30.39,10.0,Calm,Calm,-,N/A,,Overcast,0,2013-03-06 19:35:00
1:54 PM,21.2,15.8,80,30.38,10.0,ENE,3.5,-,N/A,Snow,Light Snow,70,2013-03-06 19:54:00
2:15 PM,23.0,15.8,74,30.37,10.0,Calm,Calm,-,N/A,Snow,Light Snow,0,2013-03-06 20:15:00
2:35 PM,23.0,15.8,74,30.36,10.0,Calm,Calm,-,N/A,Snow,Light Snow,0,2013-03-06 20:35:00
2:54 PM,23.0,17.6,80,30.36,10.0,ENE,3.5,-,N/A,,Overcast,60,2013-03-06 20:54:00
3:15 PM,23.0,17.6,80,30.36,10.0,Calm,Calm,-,N/A,,Overcast,0,2013-03-06 21:15:00
3:34 PM,23.0,17.6,80,30.36,10.0,Calm,Calm,-,N/A,,Freezing Rain,0,2013-03-06 21:34:00
3:55 PM,23.0,17.6,80,30.36,10.0,ESE,4.6,-,N/A,Rain,Freezing Rain,120,2013-03-06 21:55:00
4:15 PM,21.2,17.6,86,30.36,10.0,East,4.6,-,N/A,,Overcast,100,2013-03-06 22:15:00
4:34 PM,21.2,17.6,86,30.35,10.0,East,4.6,-,N/A,,Overcast,90,2013-03-06 22:34:00
4:55 PM,21.2,15.8,80,30.35,10.0,Calm,Calm,-,N/A,,Scattered Clouds,0,2013-03-06 22:55:00
5:15 PM,21.2,15.8,80,30.34,10.0,Calm,Calm,-,N/A,,Clear,0,2013-03-06 23:15:00
5:35 PM,21.2,17.6,86,30.34,10.0,Calm,Calm,-,N/A,,Clear,0,2013-03-06 23:35:00
5:55 PM,21.2,15.8,80,30.33,10.0,Calm,Calm,-,N/A,,Clear,0,2013-03-06 23:55:00
6:14 PM,19.4,15.8,86,30.34,10.0,Calm,Calm,-,N/A,,Clear,0,2013-03-07 00:14:00
6:35 PM,19.4,15.8,86,30.33,10.0,Calm,Calm,-,N/A,,Clear,0,2013-03-07 00:35:00
6:55 PM,19.4,15.8,86,30.33,10.0,Calm,Calm,-,N/A,,Clear,0,2013-03-07 00:55:00
7:14 PM,17.6,15.8,93,30.33,10.0,Calm,Calm,-,N/A,,Clear,0,2013-03-07 01:14:00
7:35 PM,15.8,12.2,86,30.32,10.0,East,3.5,-,N/A,,Clear,90,2013-03-07 01:35:00
7:55 PM,15.8,12.2,86,30.32,10.0,East,3.5,-,N/A,,Clear,90,2013-03-07 01:55:00
8:14 PM,15.8,12.2,86,30.33,10.0,Calm,Calm,-,N/A,,Clear,0,2013-03-07 02:14:00
8:35 PM,15.8,14.0,93,30.33,10.0,Calm,Calm,-,N/A,,Clear,0,2013-03-07 02:35:00
8:55 PM,15.8,12.2,86,30.34,10.0,Calm,Calm,-,N/A,,Clear,0,2013-03-07 02:55:00
9:14 PM,14.0,12.2,93,30.34,10.0,SSE,3.5,-,N/A,,Clear,160,2013-03-07 03:14:00
9:35 PM,14.0,12.2,93,30.34,10.0,SE,3.5,-,N/A,,Clear,130,2013-03-07 03:35:00
9:55 PM,14.0,12.2,93,30.33,10.0,East,3.5,-,N/A,,Clear,100,2013-03-07 03:55:00
10:14 PM,12.2,12.2,100,30.33,10.0,ESE,3.5,-,N/A,,Clear,110,2013-03-07 04:14:00
10:35 PM,12.2,12.2,100,30.32,10.0,SE,4.6,-,N/A,,Clear,130,2013-03-07 04:35:00
10:55 PM,10.4,10.4,100,30.32,10.0,SE,4.6,-,N/A,,Clear,140,2013-03-07 04:55:00
11:14 PM,10.4,10.4,100,30.31,10.0,SE,3.5,-,N/A,,Clear,140,2013-03-07 05:14:00
11:35 PM,10.4,10.4,100,30.30,10.0,SE,3.5,-,N/A,,Clear,140,2013-03-07 05:35:00
11:55 PM,10.4,10.4,100,30.31,10.0,SE,3.5,-,N/A,,Clear,140,2013-03-07 05:55:00